カタログに戻る

SAMSAT-ION

運用中科学SSO
NORAD 57168·PAYLOAD·🇷🇺 Russia
この衛星名は、まだ公式ソースで確認されていません。

打ち上げ Jun 27, 2023 から Vostochny Cosmodrome

Loading…

次のパス (今後24時間)

TLE

最新Source: Space-Track

元期: Sep 14, 2026, 14:22 UTC

1 57168U 23091C   26257.59863686  .00007380  00000-0  27358-3 0  9991
2 57168  97.4932 320.3716 0011836 145.4278 214.7733 15.27859384177908

AllMySatでSAMSAT-IONをリアルタイム追跡

Download on the App Store